TimeAKST,TemperatureF,Dew PointF,Humidity,Sea Level PressureIn,VisibilityMPH,Wind Direction,Wind SpeedMPH,Gust SpeedMPH,PrecipitationIn,Events,Conditions,WindDirDegrees,DateUTC
12:08 AM,33.8,23.0,65,29.84,10.0,SSE,10.4,18.4,N/A,Rain,Light Rain,160,2013-03-06 09:08:00
12:23 AM,33.8,23.0,65,29.85,10.0,SSE,11.5,17.3,N/A,Rain-Snow,Light Rain,150,2013-03-06 09:23:00
12:38 AM,33.8,24.8,70,29.85,10.0,Variable,6.9,-,N/A,Snow,Light Snow,0,2013-03-06 09:38:00
12:53 AM,32.0,24.8,75,29.85,10.0,SSE,11.5,16.1,N/A,Rain-Snow,Light Rain,150,2013-03-06 09:53:00
12:55 AM,32.5,25.5,75,29.85,10.0,SSE,10.4,16.1,N/A,Rain-Snow,Light Rain,150,2013-03-06 09:55:00
1:08 AM,32.0,26.6,80,29.85,10.0,SSE,8.1,-,N/A,Snow,Light Snow,150,2013-03-06 10:08:00
1:55 AM,30.9,27.3,86,29.85,9.0,East,3.5,-,N/A,Snow,Light Snow,100,2013-03-06 10:55:00
2:23 AM,32.0,26.6,80,29.85,10.0,Variable,3.5,-,N/A,Snow,Light Snow,0,2013-03-06 11:23:00
3:53 AM,32.0,28.4,87,29.83,10.0,East,8.1,12.7,N/A,Rain-Snow,Light Rain,100,2013-03-06 12:53:00
3:55 AM,31.5,27.5,85,29.83,10.0,ESE,9.2,12.7,N/A,Rain-Snow,Freezing Rain,110,2013-03-06 12:55:00
4:23 AM,32.0,28.4,87,29.82,10.0,SE,8.1,-,N/A,Rain-Snow,Light Rain,130,2013-03-06 13:23:00
4:38 AM,32.0,26.6,80,29.82,10.0,SSE,10.4,-,N/A,Rain,Light Rain,150,2013-03-06 13:38:00
4:53 AM,32.0,26.6,80,29.82,10.0,SSE,6.9,17.3,N/A,,Mostly Cloudy,150,2013-03-06 13:53:00
4:55 AM,31.5,26.4,82,29.82,10.0,Variable,3.5,-,N/A,,Mostly Cloudy,0,2013-03-06 13:55:00
5:08 AM,32.0,26.6,80,29.82,10.0,SE,8.1,15.0,N/A,,Mostly Cloudy,140,2013-03-06 14:08:00
5:38 AM,32.0,26.6,80,29.81,10.0,Variable,6.9,-,N/A,,Overcast,0,2013-03-06 14:38:00
5:55 AM,31.8,26.6,81,29.81,10.0,Variable,3.5,-,N/A,,Mostly Cloudy,0,2013-03-06 14:55:00
6:38 AM,32.0,26.6,80,29.82,10.0,South,4.6,-,N/A,,Mostly Cloudy,180,2013-03-06 15:38:00
6:55 AM,32.2,26.2,79,29.82,10.0,SE,3.5,-,N/A,,Mostly Cloudy,140,2013-03-06 15:55:00
7:08 AM,32.0,26.6,80,29.82,6.0,SSE,3.5,-,N/A,Snow,Light Snow,160,2013-03-06 16:08:00
7:55 AM,31.6,27.0,83,29.82,10.0,Variable,3.5,-,N/A,Rain,Freezing Rain,0,2013-03-06 16:55:00
8:23 AM,32.0,26.6,80,29.82,10.0,Variable,5.8,-,N/A,Rain,Light Rain Showers,0,2013-03-06 17:23:00
8:55 AM,32.5,27.1,80,29.83,10.0,South,6.9,-,N/A,Snow,Light Snow Showers,170,2013-03-06 17:55:00
9:23 AM,32.0,26.6,80,29.83,10.0,SSE,3.5,-,N/A,Rain-Snow,Light Rain,160,2013-03-06 18:23:00
9:38 AM,32.0,26.6,80,29.83,10.0,SSW,3.5,-,N/A,Rain-Snow,Light Rain Showers,200,2013-03-06 18:38:00
9:55 AM,32.9,27.1,79,29.83,5.0,South,9.2,-,N/A,Rain-Snow,Light Rain Showers,180,2013-03-06 18:55:00
10:23 AM,33.8,26.6,75,29.84,10.0,South,9.2,15.0,N/A,Rain-Snow,Light Rain Showers,170,2013-03-06 19:23:00
10:55 AM,33.1,27.1,79,29.84,10.0,South,5.8,-,N/A,Rain-Snow,Light Rain Showers,170,2013-03-06 19:55:00
11:08 AM,32.0,26.6,80,29.84,10.0,SSE,6.9,-,N/A,,Mostly Cloudy,150,2013-03-06 20:08:00
11:23 AM,33.8,26.6,75,29.83,10.0,Variable,3.5,-,N/A,Rain,Light Rain Showers,0,2013-03-06 20:23:00
11:38 AM,35.6,26.6,70,29.82,10.0,South,4.6,-,N/A,Rain,Light Rain Showers,190,2013-03-06 20:38:00
11:53 AM,35.6,26.6,70,29.81,10.0,SSE,8.1,-,N/A,,Mostly Cloudy,150,2013-03-06 20:53:00
11:55 AM,34.7,26.4,72,29.81,10.0,SSE,10.4,-,N/A,Rain,Light Rain Showers,150,2013-03-06 20:55:00
12:23 PM,35.6,26.6,70,29.83,10.0,SSE,12.7,-,N/A,,Mostly Cloudy,160,2013-03-06 21:23:00
12:39 PM,35.6,26.6,70,29.83,10.0,South,13.8,18.4,N/A,,Mostly Cloudy,170,2013-03-06 21:39:00
12:55 PM,35.6,26.4,69,29.83,10.0,South,10.4,16.1,N/A,,Mostly Cloudy,180,2013-03-06 21:55:00
1:09 PM,35.6,26.6,70,29.82,10.0,South,8.1,-,N/A,,Mostly Cloudy,170,2013-03-06 22:09:00
1:24 PM,35.6,26.6,70,29.81,10.0,SSE,13.8,16.1,N/A,Rain,Light Rain Showers,160,2013-03-06 22:24:00
1:55 PM,36.7,26.4,66,29.81,10.0,South,9.2,-,N/A,,Mostly Cloudy,170,2013-03-06 22:55:00
2:55 PM,36.9,26.2,65,29.79,10.0,South,9.2,-,N/A,,Mostly Cloudy,170,2013-03-06 23:55:00
3:55 PM,37.4,26.2,64,29.77,10.0,Variable,4.6,-,N/A,,Mostly Cloudy,0,2013-03-07 00:55:00
4:55 PM,37.4,25.5,62,29.74,10.0,SE,6.9,-,N/A,,Overcast,140,2013-03-07 01:55:00
5:55 PM,37.6,23.7,57,29.71,10.0,ESE,6.9,-,N/A,,Scattered Clouds,110,2013-03-07 02:55:00
6:55 PM,35.2,23.4,62,29.68,10.0,East,9.2,-,N/A,,Clear,80,2013-03-07 03:55:00
7:55 PM,37.0,20.3,51,29.63,10.0,East,12.7,20.7,N/A,,Scattered Clouds,100,2013-03-07 04:55:00
8:55 PM,37.6,18.7,47,29.61,10.0,East,12.7,21.9,N/A,,Mostly Cloudy,100,2013-03-07 05:55:00
9:55 PM,37.0,18.9,48,29.58,10.0,East,12.7,23.0,N/A,,Mostly Cloudy,80,2013-03-07 06:55:00
10:55 PM,37.4,19.2,48,29.57,10.0,ESE,9.2,-,N/A,,Mostly Cloudy,110,2013-03-07 07:55:00
11:55 PM,38.3,19.2,46,29.54,10.0,ESE,16.1,24.2,N/A,,Mostly Cloudy,110,2013-03-07 08:55:00